User: anonymous   Login
Location: ??????
(41.3164°N, 22.6615°E)
Time: 12:37:13
(UTC+00:00)
Language:

H-2A R/B - Orbit

View from above orbital plane
View from above orbital plane
View from above satellite
View from above satellite

Ground track
Ground track

The orbit data is extracted from the following two-line orbital elements,

1 38341U 12025E   22272.59144679  .00001268  00000-0  15235-3 0  9995
2 38341  98.4908 134.7247 0055799  72.0846 288.6440 14.84893431561109
Epoch (UTC): 29 September 2022 14:11:41
Eccentricity: 0.0055799
inclination: 98.4908°
perigee height: 575 km
apogee height: 653 km
right ascension of ascending node: 134.7247°
argument of perigee: 72.0846°
revolutions per day: 14.84893431
mean anomaly at epoch: 288.6440°
orbit number at epoch: 56110

The dashed part of the orbit path shows where the satellite is in the earth's shadow,  

DLR